Location: Saint-Restitut
(44.3351°N, 4.7915°E)
Time: 12:28:26
(UTC+00:00)

Meteor 2-12 Rocket - Pass Details

Date: 03 February 2023
Orbit: 935 x 958 km, 82.5° (Epoch: 19 March)

Event Time Altitude Azimuth Distance (km) Brightness Sun altitude
Rises 18:18:13 0° 351° (N) 3,619 7.5 -15.6°
Reaches altitude 10° 18:20:43 10° 352° (N) 2,667 6.8 -16.0°
Maximum altitude 18:26:49 88° 79° (E) 945 4.4 -17.1°
Drops below altitude 10° 18:32:52 10° 172° (S) 2,638 6.7 -18.2°
Sets 18:35:20 0° 173° (S) 3,577 7.4 -18.6°
